Location: Krasnoyarskiy Pitomnik
(51.1333°N, 71.6167°E)
Time: 10:22:34
(UTC+00:00)

Cosmos 2278 Rocket - Pass Details

Date: 22 October 2021
Orbit: 841 x 845 km, 71.0° (Epoch: 06 December)

Event Time Altitude Azimuth Distance (km) Brightness Sun altitude
Rises 14:49:42 0° 331° (NNW) 3,418 6.0 -26.1°
Reaches altitude 10° 14:52:21 10° 339° (NNW) 2,479 5.0 -26.5°
Enters shadow 14:56:37 36° 23° (NNE) 1,325 3.1 -27.2°
